| time (UTC) | temp C | wind direction | speed KPH | gust KPH | rain 1hr cm | rain 24hr cm | rain mn cm | humidity % | barometer mb |
| 20260508053941 | 1 | 234 | 0.0 | 0.0 | 0.00 | 0.00 | 0.00 | 99 | 980.2 |
| 20260508053438 | 1 | 234 | 0.0 | 0.0 | 0.00 | 0.00 | 0.00 | 99 | 980.4 |
| 20260508052936 | 1 | 234 | 0.0 | 0.0 | 0.00 | 0.00 | 0.00 | 98 | 980.4 |
| 20260508052433 | 1 | 234 | 0.0 | 0.0 | 0.00 | 0.00 | 0.00 | 98 | 980.6 |
| 20260508051930 | 1 | 234 | 0.0 | 0.0 | 0.00 | 0.00 | 0.00 | 98 | 980.5 |
| 20260508051425 | 1 | 234 | 0.0 | 0.0 | 0.00 | 0.00 | 0.00 | 98 | 980.5 |
| 20260508050922 | 1 | 234 | 0.0 | 0.0 | 0.00 | 0.00 | 0.00 | 98 | 980.3 |
| 20260508050419 | 1 | 234 | 0.0 | 0.0 | 0.00 | 0.00 | 0.00 | 98 | 980.3 |
| 20260508045915 | 1 | 234 | 0.0 | 0.0 | 0.00 | 0.00 | 0.00 | 98 | 980.2 |
| 20260508045413 | 1 | 234 | 0.0 | 0.0 | 0.00 | 0.00 | 0.00 | 98 | 980.2 |
| 20260508044910 | 1 | 234 | 0.0 | 0.0 | 0.00 | 0.00 | 0.00 | 98 | 980.2 |
| 20260508044407 | 2 | 234 | 0.0 | 0.0 | 0.00 | 0.00 | 0.00 | 97 | 980.3 |
| 20260508043902 | 2 | 234 | 0.0 | 0.0 | 0.00 | 0.00 | 0.00 | 97 | 980.3 |
| 20260508043400 | 2 | 234 | 0.0 | 0.0 | 0.00 | 0.00 | 0.00 | 97 | 980.1 |
| 20260508042856 | 2 | 234 | 0.0 | 0.0 | 0.00 | 0.00 | 0.00 | 97 | 980.2 |
| 20260508042354 | 2 | 234 | 0.0 | 0.0 | 0.00 | 0.00 | 0.00 | 96 | 980.2 |
| 20260508041851 | 2 | 234 | 0.0 | 0.0 | 0.00 | 0.00 | 0.00 | 96 | 980.1 |
| 20260508041347 | 2 | 234 | 0.0 | 0.0 | 0.00 | 0.00 | 0.00 | 96 | 980.3 |
| 20260508040838 | 3 | 234 | 0.0 | 0.0 | 0.00 | 0.00 | 0.00 | 95 | 980.0 |
| 20260508040335 | 3 | 234 | 0.0 | 0.0 | 0.00 | 0.00 | 0.00 | 95 | 979.9 |
| 20260508035832 | 2 | 234 | 0.0 | 0.0 | 0.00 | 0.15 | 0.15 | 95 | 980.0 |
| 20260508035329 | 3 | 234 | 0.0 | 0.0 | 0.00 | 0.15 | 0.15 | 95 | 979.8 |
| 20260508034826 | 3 | 234 | 0.0 | 0.0 | 0.00 | 0.15 | 0.15 | 95 | 980.0 |
| 20260508034323 | 3 | 234 | 0.0 | 0.0 | 0.00 | 0.15 | 0.15 | 95 | 980.0 |
| 20260508033820 | 3 | 234 | 0.0 | 0.0 | 0.00 | 0.15 | 0.15 | 94 | 979.7 |
| 20260508033319 | 3 | 234 | 0.0 | 0.0 | 0.00 | 0.15 | 0.15 | 94 | 979.6 |
| 20260508032816 | 3 | 234 | 0.0 | 0.0 | 0.00 | 0.15 | 0.15 | 94 | 979.8 |
| 20260508032313 | 3 | 234 | 0.0 | 0.0 | 0.00 | 0.15 | 0.15 | 94 | 979.6 |
| 20260508031809 | 3 | 234 | 0.0 | 0.0 | 0.00 | 0.15 | 0.15 | 93 | 979.5 |
| 20260508031306 | 3 | 234 | 0.0 | 0.0 | 0.00 | 0.15 | 0.15 | 93 | 979.6 |
| 20260508030802 | 3 | 234 | 0.0 | 0.0 | 0.00 | 0.15 | 0.15 | 92 | 979.3 |
| 20260508030300 | 3 | 234 | 0.0 | 0.0 | 0.00 | 0.15 | 0.15 | 92 | 979.4 |
| 20260508025756 | 4 | 234 | 0.0 | 0.0 | 0.00 | 0.15 | 0.15 | 92 | 979.3 |
| 20260508025254 | 4 | 234 | 0.0 | 0.0 | 0.00 | 0.15 | 0.15 | 91 | 979.4 |
| 20260508024749 | 4 | 234 | 0.0 | 0.0 | 0.00 | 0.15 | 0.15 | 90 | 979.4 |
| 20260508024247 | 5 | 234 | 0.0 | 0.0 | 0.00 | 0.15 | 0.15 | 88 | 979.2 |
| 20260508023744 | 5 | 234 | 0.0 | 0.0 | 0.00 | 0.15 | 0.15 | 87 | 979.3 |
| 20260508023241 | 5 | 234 | 0.0 | 0.0 | 0.00 | 0.15 | 0.15 | 86 | 979.2 |
| 20260508022737 | 5 | 234 | 1.6 | 1.6 | 0.00 | 0.15 | 0.15 | 90 | 979.1 |
| 20260508022234 | 5 | 234 | 0.0 | 1.6 | 0.00 | 0.15 | 0.15 | 88 | 979.1 |
| 20260508021730 | 5 | 234 | 0.0 | 1.6 | 0.00 | 0.15 | 0.15 | 88 | 979.0 |
| 20260508021225 | 5 | 234 | 0.0 | 0.0 | 0.00 | 0.15 | 0.15 | 87 | 979.0 |
| 20260508020723 | 5 | 234 | 3.2 | 3.2 | 0.00 | 0.15 | 0.15 | 87 | 978.9 |
| 20260508020220 | 5 | 151 | 0.0 | 0.0 | 0.00 | 0.15 | 0.15 | 86 | 978.7 |
| 20260508015717 | 5 | 151 | 0.0 | 0.0 | 0.00 | 0.15 | 0.15 | 88 | 978.9 |
| 20260508015214 | 5 | 151 | 0.0 | 0.0 | 0.00 | 0.15 | 0.15 | 87 | 978.7 |
| 20260508014711 | 6 | 151 | 0.0 | 0.0 | 0.00 | 0.15 | 0.15 | 87 | 978.6 |
| 20260508014208 | 6 | 151 | 0.0 | 0.0 | 0.00 | 0.15 | 0.15 | 85 | 978.4 |
| 20260508013704 | 6 | 151 | 0.0 | 0.0 | 0.00 | 0.15 | 0.15 | 88 | 978.4 |
| 20260508013200 | 6 | 151 | 0.0 | 0.0 | 0.00 | 0.15 | 0.15 | 86 | 978.3 |
| 20260508012658 | 6 | 151 | 0.0 | 0.0 | 0.00 | 0.15 | 0.15 | 87 | 978.4 |
| 20260508012154 | 6 | 151 | 0.0 | 0.0 | 0.00 | 0.15 | 0.15 | 86 | 978.2 |
| 20260508011653 | 7 | 151 | 0.0 | 0.0 | 0.00 | 0.15 | 0.15 | 84 | 978.2 |
| 20260508011150 | 7 | 151 | 0.0 | 0.0 | 0.00 | 0.15 | 0.15 | 82 | 978.0 |
| 20260508010647 | 7 | 151 | 0.0 | 0.0 | 0.00 | 0.15 | 0.15 | 84 | 978.0 |
| 20260508010145 | 7 | 151 | 0.0 | 0.0 | 0.00 | 0.15 | 0.15 | 85 | 978.0 |
| 20260508005641 | 7 | 151 | 0.0 | 0.0 | 0.00 | 0.15 | 0.15 | 81 | 978.1 |
| 20260508005138 | 8 | 151 | 0.0 | 0.0 | 0.00 | 0.15 | 0.15 | 81 | 978.0 |
| 20260508004634 | 8 | 151 | 0.0 | 0.0 | 0.00 | 0.15 | 0.15 | 79 | 977.9 |
| 20260508004131 | 8 | 115 | 1.6 | 1.6 | 0.00 | 0.15 | 0.15 | 80 | 978.0 |
| 20260508003627 | 8 | 286 | 1.6 | 3.2 | 0.00 | 0.15 | 0.15 | 78 | 977.6 |
| 20260508003125 | 9 | 286 | 1.6 | 1.6 | 0.00 | 0.15 | 0.15 | 79 | 977.7 |
| 20260508002621 | 9 | 286 | 0.0 | 0.0 | 0.00 | 0.15 | 0.15 | 69 | 977.5 |
| 20260508002119 | 9 | 286 | 0.0 | 0.0 | 0.00 | 0.15 | 0.15 | 75 | 977.4 |
| 20260508001613 | 10 | 286 | 0.0 | 1.6 | 0.00 | 0.15 | 0.15 | 69 | 977.3 |
| 20260508001110 | 10 | 286 | 1.6 | 1.6 | 0.00 | 0.15 | 0.15 | 77 | 977.4 |
| 20260508000606 | 10 | 286 | 1.6 | 1.6 | 0.00 | 0.15 | 0.15 | 65 | 977.2 |
| 20260508000103 | 11 | 286 | 1.6 | 3.2 | 0.00 | 0.15 | 0.15 | 70 | 977.2 |
| 20260507235600 | 11 | 286 | 1.6 | 3.2 | 0.00 | 0.15 | 0.15 | 61 | 977.0 |
| 20260507235058 | 11 | 286 | 1.6 | 3.2 | 0.00 | 0.15 | 0.15 | 64 | 977.1 |
| 20260507234554 | 12 | 81 | 0.0 | 0.0 | 0.00 | 0.15 | 0.15 | 64 | 977.0 |
| 20260507234050 | 12 | 81 | 0.0 | 1.6 | 0.00 | 0.15 | 0.15 | 62 | 977.0 |
| 20260507233547 | 13 | 80 | 0.0 | 1.6 | 0.00 | 0.15 | 0.15 | 54 | 976.8 |
| 20260507233046 | 13 | 211 | 3.2 | 4.8 | 0.00 | 0.15 | 0.15 | 45 | 977.1 |
| 20260507232542 | 13 | 13 | 3.2 | 11.3 | 0.00 | 0.15 | 0.15 | 45 | 976.9 |
| 20260507232039 | 14 | 167 | 3.2 | 3.2 | 0.00 | 0.15 | 0.15 | 53 | 976.7 |
| 20260507231535 | 13 | 143 | 3.2 | 3.2 | 0.00 | 0.15 | 0.15 | 56 | 976.8 |
| 20260507231033 | 14 | 144 | 3.2 | 3.2 | 0.00 | 0.15 | 0.15 | 52 | 976.5 |
| 20260507230530 | 14 | 128 | 3.2 | 4.8 | 0.00 | 0.15 | 0.15 | 43 | 976.5 |
| 20260507230026 | 14 | 202 | 4.8 | 4.8 | 0.00 | 0.15 | 0.15 | 43 | 976.5 |
| 20260507225521 | 15 | 141 | 3.2 | 11.3 | 0.00 | 0.15 | 0.15 | 45 | 976.5 |
| 20260507225018 | 15 | 0 | 3.2 | 14.5 | 0.00 | 0.15 | 0.15 | 43 | 976.5 |
| 20260507224513 | 16 | 108 | 0.0 | 3.2 | 0.00 | 0.15 | 0.15 | 44 | 976.7 |
| 20260507224010 | 15 | 107 | 3.2 | 4.8 | 0.00 | 0.15 | 0.15 | 44 | 976.4 |
| 20260507223506 | 15 | 110 | 3.2 | 6.4 | 0.00 | 0.15 | 0.15 | 46 | 976.3 |
| 20260507223004 | 16 | 101 | 1.6 | 3.2 | 0.00 | 0.15 | 0.15 | 49 | 976.3 |
| 20260507222501 | 16 | 119 | 8.0 | 9.7 | 0.00 | 0.15 | 0.15 | 43 | 976.4 |
| 20260507221957 | 15 | 105 | 1.6 | 4.8 | 0.00 | 0.15 | 0.15 | 43 | 976.4 |
| 20260507221453 | 15 | 47 | 1.6 | 3.2 | 0.00 | 0.15 | 0.15 | 47 | 976.3 |
| 20260507220950 | 15 | 122 | 4.8 | 12.9 | 0.00 | 0.15 | 0.15 | 45 | 976.5 |
| 20260507220448 | 15 | 116 | 0.0 | 11.3 | 0.00 | 0.15 | 0.15 | 48 | 976.4 |
| 20260507215944 | 15 | 126 | 6.4 | 9.7 | 0.00 | 0.15 | 0.15 | 43 | 976.2 |
| 20260507215441 | 16 | 102 | 6.4 | 9.7 | 0.00 | 0.15 | 0.15 | 49 | 976.3 |
| 20260507214938 | 15 | 96 | 0.0 | 11.3 | 0.00 | 0.15 | 0.15 | 45 | 976.1 |
| 20260507214436 | 15 | 56 | 1.6 | 6.4 | 0.00 | 0.15 | 0.15 | 45 | 976.0 |
| 20260507213931 | 16 | 310 | 3.2 | 4.8 | 0.00 | 0.15 | 0.15 | 44 | 975.9 |
| 20260507213428 | 15 | 53 | 3.2 | 4.8 | 0.00 | 0.15 | 0.15 | 45 | 975.9 |
| 20260507212925 | 16 | 105 | 0.0 | 4.8 | 0.00 | 0.15 | 0.15 | 43 | 975.9 |
| 20260507212420 | 16 | 305 | 4.8 | 6.4 | 0.00 | 0.15 | 0.15 | 41 | 975.8 |
| 20260507211918 | 16 | 5 | 6.4 | 16.1 | 0.00 | 0.15 | 0.15 | 45 | 975.7 |
| 20260507211409 | 16 | 76 | 3.2 | 14.5 | 0.00 | 0.15 | 0.15 | 44 | 975.6 |
| 20260507210906 | 15 | 66 | 6.4 | 11.3 | 0.00 | 0.15 | 0.15 | 46 | 975.7 |
| 20260507210403 | 16 | 76 | 4.8 | 11.3 | 0.00 | 0.15 | 0.15 | 44 | 975.8 |
| 20260507205859 | 16 | 142 | 3.2 | 6.4 | 0.00 | 0.15 | 0.15 | 44 | 975.7 |
| 20260507205357 | 16 | 69 | 8.0 | 14.5 | 0.00 | 0.15 | 0.15 | 42 | 975.8 |
| 20260507204852 | 16 | 53 | 4.8 | 6.4 | 0.00 | 0.15 | 0.15 | 45 | 975.6 |
| 20260507204349 | 15 | 86 | 3.2 | 4.8 | 0.00 | 0.15 | 0.15 | 51 | 975.6 |
| 20260507203847 | 15 | 6 | 1.6 | 9.7 | 0.00 | 0.15 | 0.15 | 49 | 975.7 |
| 20260507203344 | 15 | 77 | 4.8 | 6.4 | 0.00 | 0.15 | 0.15 | 45 | 975.5 |
| 20260507202840 | 16 | 103 | 1.6 | 9.7 | 0.00 | 0.15 | 0.15 | 44 | 975.5 |
| 20260507202337 | 16 | 111 | 4.8 | 11.3 | 0.00 | 0.15 | 0.15 | 46 | 975.5 |
| 20260507201832 | 16 | 138 | 1.6 | 4.8 | 0.00 | 0.15 | 0.15 | 46 | 975.8 |
| 20260507201328 | 16 | 246 | 3.2 | 4.8 | 0.00 | 0.15 | 0.15 | 46 | 975.9 |
| 20260507200825 | 16 | 64 | 4.8 | 6.4 | 0.00 | 0.15 | 0.15 | 48 | 975.8 |
| 20260507200321 | 15 | 93 | 3.2 | 6.4 | 0.00 | 0.15 | 0.15 | 50 | 975.9 |
| 20260507195817 | 15 | 51 | 6.4 | 6.4 | 0.00 | 0.15 | 0.15 | 45 | 975.9 |
| 20260507195314 | 16 | 239 | 1.6 | 12.9 | 0.00 | 0.15 | 0.15 | 45 | 976.1 |
| 20260507194811 | 17 | 42 | 6.4 | 9.7 | 0.00 | 0.15 | 0.15 | 45 | 976.2 |
| 20260507194307 | 17 | 195 | 8.0 | 11.3 | 0.00 | 0.15 | 0.15 | 43 | 976.2 |
| 20260507193804 | 17 | 93 | 6.4 | 14.5 | 0.00 | 0.15 | 0.15 | 47 | 976.2 |
| 20260507193301 | 17 | 191 | 3.2 | 4.8 | 0.00 | 0.15 | 0.15 | 48 | 976.2 |
| 20260507192757 | 16 | 108 | 8.0 | 11.3 | 0.00 | 0.15 | 0.15 | 46 | 976.2 |
| 20260507192254 | 16 | 74 | 6.4 | 12.9 | 0.00 | 0.15 | 0.15 | 43 | 976.2 |
| 20260507191750 | 16 | 119 | 1.6 | 6.4 | 0.00 | 0.15 | 0.15 | 49 | 976.3 |
| 20260507191247 | 16 | 189 | 4.8 | 16.1 | 0.00 | 0.15 | 0.15 | 50 | 976.2 |
| 20260507190744 | 15 | 352 | 1.6 | 12.9 | 0.00 | 0.15 | 0.15 | 54 | 976.4 |
| 20260507190242 | 15 | 9 | 3.2 | 9.7 | 0.00 | 0.15 | 0.15 | 54 | 976.5 |
| 20260507185741 | 15 | 34 | 3.2 | 9.7 | 0.00 | 0.15 | 0.15 | 49 | 976.3 |
| 20260507185237 | 16 | 103 | 8.0 | 11.3 | 0.00 | 0.15 | 0.15 | 53 | 976.4 |
| 20260507184735 | 15 | 90 | 6.4 | 11.3 | 0.00 | 0.15 | 0.15 | 49 | 976.4 |
| 20260507184233 | 16 | 295 | 8.0 | 16.1 | 0.00 | 0.15 | 0.15 | 55 | 976.4 |
| 20260507183729 | 16 | 95 | 4.8 | 16.1 | 0.00 | 0.15 | 0.15 | 47 | 976.3 |
| 20260507183226 | 16 | 323 | 0.0 | 6.4 | 0.00 | 0.15 | 0.15 | 50 | 976.3 |
| 20260507182723 | 15 | 183 | 12.9 | 17.7 | 0.00 | 0.15 | 0.15 | 53 | 976.3 |
| 20260507182218 | 15 | 46 | 14.5 | 16.1 | 0.00 | 0.15 | 0.15 | 48 | 976.3 |
| 20260507181715 | 15 | 54 | 9.7 | 12.9 | 0.00 | 0.15 | 0.15 | 50 | 976.5 |
| 20260507181212 | 15 | 70 | 3.2 | 4.8 | 0.00 | 0.15 | 0.15 | 55 | 976.5 |
| 20260507180709 | 15 | 102 | 1.6 | 4.8 | 0.00 | 0.15 | 0.15 | 52 | 976.8 |
| 20260507180205 | 16 | 206 | 3.2 | 12.9 | 0.00 | 0.15 | 0.15 | 48 | 976.7 |
| 20260507175701 | 16 | 233 | 1.6 | 6.4 | 0.00 | 0.15 | 0.15 | 56 | 976.8 |
| 20260507175158 | 15 | 129 | 1.6 | 9.7 | 0.00 | 0.15 | 0.15 | 57 | 976.6 |
| 20260507174655 | 15 | 91 | 1.6 | 4.8 | 0.00 | 0.15 | 0.15 | 54 | 976.7 |
| 20260507174153 | 15 | 164 | 6.4 | 9.7 | 0.00 | 0.15 | 0.15 | 54 | 976.9 |
| 20260507173650 | 14 | 59 | 4.8 | 6.4 | 0.00 | 0.15 | 0.15 | 56 | 976.9 |
| 20260507173147 | 15 | 69 | 1.6 | 3.2 | 0.00 | 0.15 | 0.15 | 59 | 977.0 |
| 20260507172644 | 14 | 74 | 6.4 | 6.4 | 0.00 | 0.15 | 0.15 | 58 | 977.0 |
| 20260507172141 | 13 | 316 | 0.0 | 9.7 | 0.00 | 0.15 | 0.15 | 56 | 976.8 |
| 20260507171641 | 14 | 37 | 3.2 | 4.8 | 0.00 | 0.15 | 0.15 | 55 | 977.2 |
| 20260507171138 | 14 | 352 | 4.8 | 9.7 | 0.00 | 0.15 | 0.15 | 66 | 977.2 |
| 20260507170635 | 13 | 343 | 3.2 | 11.3 | 0.00 | 0.15 | 0.15 | 60 | 977.3 |
| 20260507170133 | 15 | 72 | 4.8 | 6.4 | 0.00 | 0.15 | 0.15 | 57 | 977.2 |
| 20260507165628 | 14 | 111 | 1.6 | 6.4 | 0.00 | 0.15 | 0.15 | 56 | 977.2 |
| 20260507165124 | 15 | 77 | 8.0 | 9.7 | 0.00 | 0.15 | 0.15 | 67 | 977.4 |
| 20260507164620 | 15 | 66 | 4.8 | 6.4 | 0.00 | 0.15 | 0.15 | 58 | 977.4 |
| 20260507164117 | 14 | 294 | 3.2 | 6.4 | 0.00 | 0.15 | 0.15 | 59 | 977.6 |
| 20260507163615 | 14 | 183 | 3.2 | 12.9 | 0.00 | 0.15 | 0.15 | 61 | 977.7 |
| 20260507163113 | 13 | 105 | 3.2 | 3.2 | 0.00 | 0.15 | 0.15 | 62 | 977.8 |
| 20260507162614 | 13 | 126 | 3.2 | 4.8 | 0.00 | 0.15 | 0.15 | 62 | 977.8 |
| 20260507162111 | 13 | 349 | 1.6 | 4.8 | 0.00 | 0.15 | 0.15 | 70 | 977.9 |
| 20260507161607 | 13 | 68 | 0.0 | 4.8 | 0.00 | 0.15 | 0.15 | 60 | 977.7 |
| 20260507161103 | 13 | 31 | 8.0 | 12.9 | 0.00 | 0.15 | 0.15 | 62 | 977.8 |
| 20260507160600 | 13 | 329 | 6.4 | 9.7 | 0.00 | 0.15 | 0.15 | 60 | 977.9 |
| 20260507160056 | 14 | 67 | 1.6 | 4.8 | 0.00 | 0.15 | 0.15 | 60 | 977.7 |
| 20260507155551 | 13 | 185 | 1.6 | 6.4 | 0.00 | 0.15 | 0.15 | 62 | 977.9 |
| 20260507155049 | 15 | 0 | 1.6 | 4.8 | 0.00 | 0.15 | 0.15 | 62 | 978.0 |
| 20260507154545 | 13 | 182 | 3.2 | 9.7 | 0.00 | 0.15 | 0.15 | 65 | 977.9 |
| 20260507154043 | 14 | 351 | 1.6 | 6.4 | 0.00 | 0.15 | 0.15 | 61 | 978.3 |
| 20260507153539 | 13 | 58 | 6.4 | 12.9 | 0.00 | 0.15 | 0.15 | 64 | 978.0 |
| 20260507153035 | 14 | 45 | 3.2 | 4.8 | 0.00 | 0.15 | 0.15 | 65 | 978.1 |
| 20260507152531 | 12 | 66 | 3.2 | 4.8 | 0.00 | 0.15 | 0.15 | 67 | 978.1 |
| 20260507152028 | 14 | 268 | 4.8 | 4.8 | 0.00 | 0.15 | 0.15 | 67 | 978.1 |
| 20260507151524 | 13 | 129 | 0.0 | 6.4 | 0.00 | 0.15 | 0.15 | 61 | 978.2 |
| 20260507151021 | 12 | 89 | 3.2 | 4.8 | 0.00 | 0.15 | 0.15 | 68 | 978.2 |
| 20260507150518 | 12 | 164 | 3.2 | 6.4 | 0.00 | 0.15 | 0.15 | 66 | 978.2 |
| 20260507150015 | 12 | 140 | 3.2 | 4.8 | 0.00 | 0.15 | 0.15 | 65 | 978.2 |
| 20260507145510 | 12 | 103 | 3.2 | 4.8 | 0.00 | 0.15 | 0.15 | 69 | 978.1 |
| 20260507145008 | 12 | 313 | 0.0 | 3.2 | 0.00 | 0.15 | 0.15 | 70 | 978.3 |
| 20260507144504 | 12 | 2 | 1.6 | 3.2 | 0.00 | 0.15 | 0.15 | 67 | 978.6 |
| 20260507144001 | 12 | 2 | 0.0 | 1.6 | 0.00 | 0.15 | 0.15 | 68 | 978.4 |
| 20260507143459 | 12 | 2 | 3.2 | 4.8 | 0.00 | 0.15 | 0.15 | 70 | 978.5 |
| 20260507142955 | 12 | 24 | 1.6 | 3.2 | 0.00 | 0.15 | 0.15 | 78 | 978.5 |
| 20260507142451 | 12 | 60 | 0.0 | 3.2 | 0.00 | 0.15 | 0.15 | 79 | 978.8 |
| 20260507141948 | 11 | 60 | 0.0 | 1.6 | 0.00 | 0.15 | 0.15 | 76 | 978.8 |
| 20260507141444 | 11 | 61 | 4.8 | 6.4 | 0.00 | 0.15 | 0.15 | 79 | 978.9 |
| 20260507140941 | 11 | 303 | 0.0 | 3.2 | 0.00 | 0.15 | 0.15 | 81 | 979.1 |
| 20260507140438 | 11 | 53 | 0.0 | 0.0 | 0.00 | 0.15 | 0.15 | 85 | 979.0 |
| 20260507135936 | 11 | 53 | 1.6 | 3.2 | 0.00 | 0.15 | 0.15 | 84 | 978.9 |
| 20260507135432 | 11 | 52 | 3.2 | 3.2 | 0.00 | 0.15 | 0.15 | 84 | 979.1 |
| 20260507134930 | 11 | 52 | 0.0 | 1.6 | 0.00 | 0.15 | 0.15 | 84 | 979.1 |
| 20260507134426 | 10 | 52 | 0.0 | 3.2 | 0.00 | 0.15 | 0.15 | 85 | 979.1 |
| 20260507133922 | 11 | 52 | 1.6 | 3.2 | 0.00 | 0.15 | 0.15 | 88 | 979.1 |
| 20260507133418 | 10 | 76 | 1.6 | 3.2 | 0.00 | 0.15 | 0.15 | 90 | 979.0 |
| 20260507132917 | 10 | 77 | 1.6 | 1.6 | 0.00 | 0.15 | 0.15 | 90 | 979.0 |
| 20260507132413 | 10 | 77 | 1.6 | 3.2 | 0.00 | 0.15 | 0.15 | 92 | 979.1 |
| 20260507131909 | 10 | 70 | 0.0 | 3.2 | 0.00 | 0.15 | 0.15 | 91 | 979.2 |
| 20260507131406 | 10 | 70 | 0.0 | 1.6 | 0.00 | 0.15 | 0.15 | 92 | 979.2 |
| 20260507130903 | 10 | 70 | 0.0 | 0.0 | 0.00 | 0.15 | 0.15 | 92 | 979.4 |
| 20260507130400 | 10 | 70 | 0.0 | 1.6 | 0.00 | 0.15 | 0.15 | 95 | 979.3 |
| 20260507125859 | 10 | 70 | 0.0 | 1.6 | 0.00 | 0.15 | 0.15 | 95 | 979.2 |
| 20260507125356 | 10 | 70 | 0.0 | 1.6 | 0.00 | 0.15 | 0.15 | 96 | 979.4 |
| 20260507124854 | 10 | 70 | 0.0 | 0.0 | 0.00 | 0.15 | 0.15 | 96 | 979.3 |
| 20260507124349 | 10 | 70 | 1.6 | 1.6 | 0.00 | 0.15 | 0.15 | 97 | 979.5 |
| 20260507123848 | 10 | 70 | 0.0 | 0.0 | 0.00 | 0.15 | 0.15 | 97 | 979.2 |
| 20260507123345 | 9 | 70 | 0.0 | 0.0 | 0.00 | 0.15 | 0.15 | 98 | 979.2 |
| 20260507122841 | 9 | 70 | 0.0 | 0.0 | 0.00 | 0.15 | 0.15 | 98 | 979.1 |
| 20260507122337 | 9 | 70 | 0.0 | 0.0 | 0.00 | 0.15 | 0.15 | 98 | 979.3 |
| 20260507121833 | 9 | 70 | 0.0 | 0.0 | 0.00 | 0.15 | 0.15 | 99 | 979.2 |
| 20260507121329 | 9 | 70 | 0.0 | 0.0 | 0.00 | 0.15 | 0.15 | 99 | 979.3 |
| 20260507120826 | 9 | 70 | 0.0 | 0.0 | 0.00 | 0.15 | 0.15 | 99 | 979.2 |
| 20260507120322 | 9 | 70 | 0.0 | 0.0 | 0.00 | 0.15 | 0.15 | 99 | 979.3 |
| 20260507115818 | 9 | 70 | 0.0 | 0.0 | 0.00 | 0.15 | 0.15 | 99 | 979.2 |
| 20260507115314 | 9 | 70 | 0.0 | 0.0 | 0.00 | 0.15 | 0.15 | 99 | 979.5 |
| 20260507114810 | 9 | 70 | 0.0 | 0.0 | 0.00 | 0.15 | 0.15 | 99 | 979.2 |
| 20260507114308 | 9 | 70 | 0.0 | 0.0 | 0.00 | 0.15 | 0.15 | 99 | 978.9 |
| 20260507113805 | 8 | 70 | 0.0 | 0.0 | 0.00 | 0.15 | 0.15 | 99 | 979.0 |
| 20260507113302 | 8 | 70 | 0.0 | 0.0 | 0.00 | 0.15 | 0.15 | 99 | 979.1 |
| 20260507112759 | 8 | 70 | 0.0 | 0.0 | 0.00 | 0.15 | 0.15 | 99 | 978.9 |
| 20260507112256 | 8 | 70 | 0.0 | 0.0 | 0.00 | 0.15 | 0.15 | 99 | 978.9 |
| 20260507111754 | 8 | 70 | 0.0 | 0.0 | 0.00 | 0.15 | 0.15 | 99 | 978.8 |
| 20260507111250 | 8 | 70 | 0.0 | 0.0 | 0.00 | 0.15 | 0.15 | 99 | 978.6 |
| 20260507110746 | 8 | 70 | 0.0 | 0.0 | 0.00 | 0.15 | 0.15 | 99 | 978.5 |
| 20260507110243 | 8 | 70 | 0.0 | 0.0 | 0.00 | 0.15 | 0.15 | 99 | 978.5 |
| 20260507105740 | 8 | 70 | 0.0 | 0.0 | 0.00 | 0.15 | 0.15 | 99 | 978.2 |
| 20260507105236 | 8 | 70 | 0.0 | 0.0 | 0.00 | 0.15 | 0.15 | 99 | 978.4 |
| 20260507104733 | 8 | 70 | 0.0 | 0.0 | 0.00 | 0.15 | 0.15 | 99 | 978.2 |
| 20260507104230 | 8 | 70 | 0.0 | 0.0 | 0.00 | 0.15 | 0.15 | 99 | 978.2 |
| 20260507103726 | 8 | 70 | 0.0 | 0.0 | 0.00 | 0.15 | 0.15 | 99 | 978.3 |
| 20260507103222 | 8 | 70 | 0.0 | 0.0 | 0.00 | 0.15 | 0.15 | 99 | 978.3 |
| 20260507102719 | 8 | 70 | 0.0 | 0.0 | 0.00 | 0.15 | 0.15 | 99 | 978.4 |
| 20260507102215 | 8 | 70 | 0.0 | 0.0 | 0.00 | 0.15 | 0.15 | 99 | 978.4 |
| 20260507101711 | 8 | 70 | 0.0 | 0.0 | 0.00 | 0.15 | 0.15 | 99 | 978.3 |
| 20260507101207 | 8 | 70 | 0.0 | 0.0 | 0.00 | 0.15 | 0.15 | 99 | 978.3 |
| 20260507100704 | 8 | 70 | 0.0 | 0.0 | 0.00 | 0.15 | 0.15 | 99 | 978.3 |
| 20260507100203 | 8 | 70 | 0.0 | 0.0 | 0.00 | 0.15 | 0.15 | 99 | 978.2 |
| 20260507095700 | 8 | 70 | 0.0 | 0.0 | 0.00 | 0.15 | 0.15 | 99 | 978.4 |
| 20260507095156 | 8 | 70 | 0.0 | 0.0 | 0.00 | 0.15 | 0.15 | 99 | 978.1 |
| 20260507094653 | 8 | 70 | 0.0 | 0.0 | 0.00 | 0.15 | 0.15 | 99 | 978.3 |
| 20260507094150 | 8 | 70 | 0.0 | 0.0 | 0.00 | 0.15 | 0.15 | 99 | 978.3 |
| 20260507093647 | 8 | 70 | 0.0 | 0.0 | 0.00 | 0.15 | 0.15 | 99 | 978.3 |
| 20260507093146 | 8 | 70 | 0.0 | 0.0 | 0.00 | 0.15 | 0.15 | 99 | 978.2 |
| 20260507092642 | 8 | 70 | 0.0 | 0.0 | 0.00 | 0.15 | 0.15 | 99 | 978.0 |
| 20260507092139 | 8 | 70 | 0.0 | 0.0 | 0.00 | 0.15 | 0.15 | 99 | 978.0 |
| 20260507091635 | 8 | 70 | 0.0 | 0.0 | 0.00 | 0.15 | 0.15 | 99 | 978.0 |
| 20260507091131 | 8 | 70 | 0.0 | 0.0 | 0.00 | 0.15 | 0.15 | 99 | 978.1 |
| 20260507090627 | 8 | 70 | 0.0 | 0.0 | 0.00 | 0.15 | 0.15 | 99 | 978.1 |
| 20260507090125 | 8 | 70 | 0.0 | 0.0 | 0.00 | 0.15 | 0.15 | 99 | 977.9 |
| 20260507085622 | 8 | 70 | 0.0 | 0.0 | 0.00 | 0.15 | 0.15 | 99 | 978.2 |
| 20260507085118 | 8 | 70 | 0.0 | 0.0 | 0.00 | 0.15 | 0.15 | 99 | 978.1 |
| 20260507084615 | 8 | 70 | 0.0 | 0.0 | 0.00 | 0.15 | 0.15 | 99 | 978.2 |
| 20260507084112 | 8 | 70 | 0.0 | 1.6 | 0.00 | 0.15 | 0.15 | 99 | 978.2 |
| 20260507083609 | 8 | 70 | 0.0 | 0.0 | 0.00 | 0.15 | 0.15 | 99 | 978.3 |
| 20260507083106 | 8 | 70 | 0.0 | 0.0 | 0.00 | 0.15 | 0.15 | 99 | 978.3 |
| 20260507082601 | 8 | 70 | 0.0 | 0.0 | 0.00 | 0.15 | 0.15 | 99 | 978.4 |
| 20260507082058 | 8 | 70 | 0.0 | 0.0 | 0.00 | 0.15 | 0.15 | 99 | 978.1 |
| 20260507081554 | 8 | 70 | 0.0 | 0.0 | 0.00 | 0.15 | 0.15 | 99 | 978.3 |
| 20260507081051 | 8 | 70 | 0.0 | 0.0 | 0.00 | 0.15 | 0.15 | 99 | 978.0 |
| 20260507080547 | 8 | 70 | 0.0 | 0.0 | 0.00 | 0.15 | 0.15 | 99 | 978.3 |
| 20260507080044 | 8 | 70 | 0.0 | 0.0 | 0.00 | 0.15 | 0.15 | 99 | 978.2 |
| 20260507075539 | 8 | 70 | 0.0 | 0.0 | 0.00 | 0.15 | 0.15 | 99 | 978.2 |
| 20260507075036 | 8 | 70 | 0.0 | 0.0 | 0.00 | 0.15 | 0.15 | 99 | 978.2 |
| 20260507074532 | 8 | 70 | 0.0 | 0.0 | 0.00 | 0.15 | 0.15 | 99 | 978.0 |
| 20260507074031 | 8 | 70 | 0.0 | 0.0 | 0.00 | 0.15 | 0.15 | 99 | 978.0 |
| 20260507073527 | 8 | 70 | 1.6 | 1.6 | 0.00 | 0.15 | 0.15 | 99 | 978.0 |
| 20260507073023 | 8 | 70 | 0.0 | 1.6 | 0.00 | 0.15 | 0.15 | 99 | 978.0 |
| 20260507072521 | 9 | 70 | 0.0 | 1.6 | 0.00 | 0.15 | 0.15 | 99 | 978.1 |
| 20260507072018 | 9 | 70 | 0.0 | 0.0 | 0.00 | 0.15 | 0.15 | 98 | 978.2 |
| 20260507071515 | 9 | 70 | 0.0 | 0.0 | 0.00 | 0.15 | 0.15 | 97 | 978.0 |
| 20260507071012 | 9 | 70 | 0.0 | 0.0 | 0.13 | 0.15 | 0.15 | 97 | 978.0 |
| 20260507070509 | 9 | 70 | 0.0 | 1.6 | 0.13 | 0.15 | 0.15 | 96 | 978.0 |
| 20260507070010 | 9 | 337 | 0.0 | 1.6 | 0.00 | 0.13 | 0.13 | 97 | 978.2 |
| 20260507065502 | 9 | 337 | 0.0 | 1.6 | 0.00 | 0.13 | 0.13 | 98 | 978.1 |
| 20260507064959 | 9 | 337 | 0.0 | 0.0 | 0.00 | 0.13 | 0.13 | 98 | 978.1 |
| 20260507064458 | 9 | 337 | 0.0 | 0.0 | 0.00 | 0.13 | 0.13 | 99 | 978.1 |
| 20260507063955 | 9 | 337 | 0.0 | 3.2 | 0.00 | 0.13 | 0.13 | 99 | 978.4 |
| 20260507063452 | 9 | 337 | 4.8 | 4.8 | 0.00 | 0.13 | 0.13 | 99 | 978.2 |
| 20260507062949 | 9 | 227 | 0.0 | 0.0 | 0.00 | 0.13 | 0.13 | 99 | 978.3 |
| 20260507062446 | 9 | 227 | 0.0 | 0.0 | 0.00 | 0.13 | 0.13 | 99 | 977.9 |
| 20260507061943 | 9 | 227 | 0.0 | 0.0 | 0.00 | 0.13 | 0.13 | 99 | 978.2 |
| 20260507061442 | 9 | 227 | 0.0 | 0.0 | 0.00 | 0.13 | 0.13 | 99 | 978.1 |
| 20260507060940 | 10 | 227 | 0.0 | 0.0 | 0.18 | 0.13 | 0.13 | 99 | 978.0 |
| 20260507060436 | 10 | 227 | 0.0 | 0.0 | 0.00 | 0.10 | 0.10 | 99 | 978.1 |
| 20260507055933 | 10 | 227 | 0.0 | 0.0 | 0.00 | 0.10 | 0.10 | 99 | 978.4 |
| 20260507055428 | 10 | 227 | 0.0 | 0.0 | 0.00 | 0.10 | 0.10 | 99 | 978.3 |
| 20260507054925 | 9 | 227 | 1.6 | 4.8 | 0.00 | 0.10 | 0.10 | 99 | 978.4 |
| 20260507054421 | 10 | 82 | 1.6 | 3.2 | 0.18 | 0.10 | 0.10 | 99 | 978.5 |